Accueil
METAR-TAF:

METAR-TAF

Aéroports :

Aéroport de Vannes

Vannes, France

latitude: 47-43-19N, longitude: 2-43-41W, altitude: 130 m

Observation

Le bulletin a été fait il y a 46 minutes, à 09:00 UTC
Vent 17 kt de est/nord-est
Température 4°C
Humidité 1%
Pression 1018 hPa
Visibilité: 8000 m

METAR: LFRV 180900Z AUTO 06017KT 8000 NSC 04/M48 Q1018

Heure: 10:46 (09:46 UTC)


TAF: absent

Observations et prévisions météorologiques de plus de 4000 aéroports (messages METAR et TAF).

Les stations disponibles sont représentées par des disques jaunes et rouges sur la carte.

Passer la souris dessus pour voir le nom de la station.

Cliquer dessus pour voir les observations et prévisions météorologiques.

Pour changer de carte: cliquez sur les boutons verts avec une croix noire pour zoomer, sur le bouton vert avec un tiret pour effectuer un zoom arrière, ou sur les flèches vertes pour les cartes adjacentes.


METAR-TAF: